EGPK

Glasgow Prestwick Airport

Airport
ICAO code
EGPK
IATA Code
PIK
Summary
ICAO Region
EUR
ICAO Territory
Location

Prestwick, South Ayrshire, Scotland

Serving
Glasgow
Elevation
65 ft
Coordinates
55° 30' 21" N , 4° 35' 12" W
KCC
Metar
Observation
EGPK 060620Z 23022KT 7000 R30/1400 -RA FEW017 SCT034 13/10 Q1014
Station
Prestwick Airport
Date/Time
2022-10-06 06:20:00
Wind direction
230°
Wind speed
22 kts
Lowest cloud amount
few clouds
Temperature
13°C
Dew point
10°C
Humidity
82%
QNH
1014 hPa
Weather condition
n/a

Description

International airport serving south west Scotland and the Glasgow urban area, situated 50 km from Glasgow city centre.

Climatology

Temperate Marine climate/Oceanic climate (Köppen climate classification Cfb). Moderately cool summer and comparatively warm winter with a temperature range of only 14°C. Prevailing south-westerly winds from the Atlantic Ocean.

Runways

Designator Length Width Surface Rops
3/21 1829 45 ASP Yes/Yes
13/31 2987 46 PEM Yes/Yes

SKYbrary Partners:

Safety knowledge contributed by: